Location: Carnoy
(49.9849°N, 2.7558°E)
Time: 18:56:42
(UTC+00:00)

Cosmos 2237 Rocket - Pass Details

Date: 24 January 2020
Orbit: 836 x 848 km, 71.0° (Epoch: 27 February)

Event Time Altitude Azimuth Distance (km) Brightness Sun altitude
Rises 16:56:08 0° 331° (NNW) 3,400 5.4 -4.7°
Reaches altitude 10° 16:58:35 10° 333° (NNW) 2,461 4.7 -5.1°
Maximum altitude 17:04:14 75° 59° (ENE) 869 2.2 -5.9°
Drops below altitude 10° 17:09:51 10° 146° (SE) 2,446 4.5 -6.8°
Sets 17:12:17 0° 148° (SSE) 3,377 5.2 -7.1°
